| time (UTC) | temp F | wind direction | speed MPH | gust MPH | rain 1hr in | rain 24hr in | rain mn in | humidity % | barometer mb |
| 20260904195435 | 64 | 45 | 8.0 | 17.0 | 0.02 | 0.02 | 0.00 | 87 | 996.2 |
| 20260904194735 | 65 | 68 | 8.0 | 18.0 | 0.02 | 0.02 | 0.00 | 86 | 996.7 |
| 20260904194030 | 66 | 45 | 10.0 | 22.0 | 0.02 | 0.02 | 0.00 | 86 | 996.6 |
| 20260904193307 | 68 | 45 | 14.0 | 26.0 | 0.02 | 0.02 | 0.00 | 85 | 996.1 |
| 20260904192636 | 68 | 0 | 11.0 | 21.0 | 0.02 | 0.02 | 0.00 | 82 | 995.3 |
| 20260904191936 | 68 | 0 | 9.0 | 18.0 | 0.00 | 0.00 | 0.00 | 81 | 994.9 |
| 20260904191236 | 69 | 0 | 9.0 | 13.0 | 0.00 | 0.00 | 0.00 | 79 | 994.9 |
| 20260904190459 | 70 | 0 | 12.0 | 19.0 | 0.00 | 0.00 | 0.00 | 76 | 995.0 |
| 20260904185807 | 70 | 0 | 13.0 | 18.0 | 0.00 | 0.00 | 0.00 | 75 | 995.0 |
| 20260904185137 | 70 | 23 | 13.0 | 18.0 | 0.00 | 0.00 | 0.00 | 74 | 995.0 |
| 20260904184436 | 71 | 23 | 14.0 | 19.0 | 0.00 | 0.00 | 0.00 | 71 | 995.0 |
| 20260904183737 | 72 | 0 | 14.0 | 20.0 | 0.00 | 0.00 | 0.00 | 69 | 994.6 |
| 20260904183037 | 73 | 0 | 15.0 | 23.0 | 0.00 | 0.00 | 0.00 | 67 | 995.1 |
| 20260904182337 | 73 | 0 | 15.0 | 21.0 | 0.00 | 0.00 | 0.00 | 67 | 994.8 |
| 20260904181637 | 72 | 0 | 16.0 | 21.0 | 0.00 | 0.00 | 0.00 | 67 | 995.2 |
| 20260904180937 | 72 | 0 | 13.0 | 17.0 | 0.00 | 0.00 | 0.00 | 68 | 995.3 |
| 20260904180157 | 72 | 0 | 13.0 | 21.0 | 0.00 | 0.00 | 0.00 | 69 | 995.4 |
| 20260904174138 | 71 | 0 | 9.0 | 14.0 | 0.00 | 0.00 | 0.00 | 70 | 995.8 |
| 20260904173439 | 71 | 359 | 0.0 | 0.0 | 0.00 | 0.00 | 0.00 | 70 | 995.8 |
| 20260904172653 | 71 | 0 | 12.0 | 17.0 | 0.00 | 0.00 | 0.00 | 71 | 996.1 |
| 20260904171954 | 71 | 0 | 13.0 | 20.0 | 0.00 | 0.00 | 0.00 | 71 | 996.0 |
| 20260904171326 | 71 | 0 | 11.0 | 17.0 | 0.00 | 0.00 | 0.00 | 71 | 995.9 |
| 20260904170554 | 71 | 0 | 11.0 | 20.0 | 0.00 | 0.00 | 0.00 | 71 | 996.1 |
| 20260904165854 | 71 | 0 | 11.0 | 18.0 | 0.00 | 0.00 | 0.00 | 71 | 996.4 |
| 20260904165159 | 71 | 0 | 10.0 | 18.0 | 0.00 | 0.00 | 0.00 | 70 | 996.7 |
| 20260904164454 | 71 | 0 | 10.0 | 15.0 | 0.00 | 0.00 | 0.00 | 70 | 996.9 |
| 20260904163755 | 71 | 0 | 9.0 | 13.0 | 0.00 | 0.00 | 0.00 | 69 | 997.1 |
| 20260904163103 | 72 | 0 | 10.0 | 14.0 | 0.00 | 0.00 | 0.00 | 69 | 997.3 |
| 20260904162355 | 72 | 0 | 11.0 | 18.0 | 0.00 | 0.00 | 0.00 | 68 | 997.4 |
| 20260904161655 | 72 | 23 | 11.0 | 17.0 | 0.00 | 0.00 | 0.00 | 68 | 997.4 |
| 20260904160956 | 72 | 23 | 12.0 | 17.0 | 0.00 | 0.00 | 0.00 | 68 | 997.8 |
| 20260904160256 | 72 | 0 | 13.0 | 21.0 | 0.00 | 0.00 | 0.00 | 67 | 997.9 |
| 20260904155604 | 72 | 0 | 13.0 | 21.0 | 0.00 | 0.00 | 0.00 | 67 | 997.8 |
| 20260904154900 | 73 | 0 | 12.0 | 19.0 | 0.00 | 0.00 | 0.00 | 67 | 997.8 |
| 20260904154156 | 73 | 0 | 13.0 | 18.0 | 0.00 | 0.00 | 0.00 | 66 | 997.7 |
| 20260904153456 | 73 | 0 | 12.0 | 17.0 | 0.00 | 0.00 | 0.00 | 66 | 997.7 |
| 20260904152757 | 73 | 0 | 15.0 | 21.0 | 0.00 | 0.00 | 0.00 | 65 | 998.0 |
| 20260904152057 | 73 | 0 | 13.0 | 17.0 | 0.00 | 0.00 | 0.00 | 65 | 997.9 |
| 20260904150657 | 73 | 0 | 12.0 | 18.0 | 0.00 | 0.00 | 0.00 | 63 | 998.4 |
| 20260904145957 | 73 | 0 | 10.0 | 16.0 | 0.00 | 0.00 | 0.00 | 63 | 998.3 |
| 20260904145306 | 73 | 0 | 10.0 | 17.0 | 0.00 | 0.00 | 0.00 | 63 | 998.6 |
| 20260904144558 | 73 | 0 | 9.0 | 17.0 | 0.00 | 0.00 | 0.00 | 62 | 998.6 |
| 20260904143926 | 73 | 0 | 10.0 | 17.0 | 0.00 | 0.00 | 0.00 | 62 | 998.9 |
| 20260904143202 | 73 | 0 | 10.0 | 14.0 | 0.00 | 0.00 | 0.00 | 62 | 998.9 |
| 20260904142518 | 73 | 0 | 8.0 | 14.0 | 0.00 | 0.00 | 0.00 | 63 | 999.3 |
| 20260904141127 | 73 | 0 | 9.0 | 15.0 | 0.00 | 0.00 | 0.00 | 61 | 999.5 |
| 20260904140403 | 73 | 0 | 13.0 | 18.0 | 0.00 | 0.00 | 0.00 | 61 | 999.6 |
| 20260904135703 | 74 | 0 | 10.0 | 17.0 | 0.00 | 0.00 | 0.00 | 61 | 999.7 |
| 20260904134959 | 74 | 0 | 13.0 | 19.0 | 0.00 | 0.00 | 0.00 | 59 | 1000.0 |
| 20260904134300 | 75 | 0 | 13.0 | 17.0 | 0.00 | 0.00 | 0.00 | 58 | 1000.2 |
| 20260904132924 | 74 | 0 | 12.0 | 17.0 | 0.00 | 0.00 | 0.00 | 60 | 1000.5 |
| 20260904132200 | 74 | 0 | 12.0 | 21.0 | 0.00 | 0.00 | 0.00 | 60 | 1000.5 |
| 20260904131520 | 74 | 0 | 11.0 | 18.0 | 0.00 | 0.00 | 0.00 | 60 | 1000.7 |
| 20260904130845 | 73 | 23 | 13.0 | 20.0 | 0.00 | 0.00 | 0.00 | 61 | 1000.8 |
| 20260904130145 | 73 | 0 | 10.0 | 18.0 | 0.00 | 0.00 | 0.00 | 61 | 1001.0 |
| 20260904125446 | 73 | 23 | 12.0 | 17.0 | 0.00 | 0.00 | 0.00 | 60 | 1001.2 |
| 20260904124746 | 74 | 23 | 12.0 | 17.0 | 0.00 | 0.00 | 0.00 | 59 | 1001.3 |
| 20260904124009 | 74 | 0 | 12.0 | 21.0 | 0.00 | 0.00 | 0.00 | 58 | 1001.4 |
| 20260904123346 | 74 | 0 | 10.0 | 17.0 | 0.00 | 0.00 | 0.00 | 59 | 1001.4 |
| 20260904122646 | 74 | 0 | 10.0 | 19.0 | 0.00 | 0.00 | 0.00 | 60 | 1001.7 |
| 20260904121901 | 73 | 23 | 9.0 | 16.0 | 0.00 | 0.00 | 0.00 | 61 | 1001.5 |
| 20260904121247 | 73 | 23 | 11.0 | 16.0 | 0.00 | 0.00 | 0.00 | 61 | 1001.6 |
| 20260904120547 | 73 | 23 | 11.0 | 18.0 | 0.00 | 0.00 | 0.00 | 61 | 1001.9 |
| 20260904115847 | 73 | 0 | 11.0 | 16.0 | 0.00 | 0.00 | 0.00 | 61 | 1001.9 |
| 20260904115106 | 72 | 23 | 12.0 | 19.0 | 0.00 | 0.00 | 0.00 | 61 | 1002.0 |
| 20260904114447 | 72 | 23 | 12.0 | 21.0 | 0.00 | 0.00 | 0.00 | 59 | 1002.2 |
| 20260904113748 | 73 | 23 | 10.0 | 17.0 | 0.00 | 0.00 | 0.00 | 60 | 1002.2 |
| 20260904112305 | 74 | 23 | 10.0 | 15.0 | 0.00 | 0.00 | 0.00 | 58 | 1002.6 |
| 20260904111603 | 74 | 23 | 11.0 | 19.0 | 0.00 | 0.00 | 0.00 | 59 | 1002.5 |
| 20260904110931 | 73 | 45 | 12.0 | 17.0 | 0.00 | 0.00 | 0.00 | 59 | 1002.6 |
| 20260904110223 | 73 | 23 | 13.0 | 19.0 | 0.00 | 0.00 | 0.00 | 59 | 1002.6 |
| 20260904105528 | 72 | 23 | 12.0 | 20.0 | 0.00 | 0.00 | 0.00 | 62 | 1002.7 |
| 20260904104804 | 73 | 23 | 11.0 | 20.0 | 0.00 | 0.00 | 0.00 | 61 | 1003.0 |
| 20260904104104 | 72 | 23 | 11.0 | 17.0 | 0.00 | 0.00 | 0.00 | 62 | 1003.1 |
| 20260904103404 | 72 | 23 | 12.0 | 17.0 | 0.00 | 0.00 | 0.00 | 63 | 1002.9 |
| 20260904102048 | 72 | 23 | 12.0 | 19.0 | 0.00 | 0.00 | 0.00 | 63 | 1003.1 |
| 20260904101304 | 72 | 23 | 12.0 | 21.0 | 0.00 | 0.00 | 0.00 | 65 | 1003.2 |
| 20260904100605 | 72 | 0 | 12.0 | 21.0 | 0.00 | 0.00 | 0.00 | 65 | 1003.2 |
| 20260904095933 | 71 | 23 | 12.0 | 19.0 | 0.00 | 0.00 | 0.00 | 66 | 1003.3 |
| 20260904095205 | 71 | 23 | 12.0 | 20.0 | 0.00 | 0.00 | 0.00 | 66 | 1003.4 |
| 20260904094517 | 71 | 23 | 12.0 | 18.0 | 0.00 | 0.00 | 0.00 | 67 | 1003.3 |
| 20260904093825 | 71 | 23 | 9.0 | 16.0 | 0.00 | 0.00 | 0.00 | 68 | 1003.2 |
| 20260904093110 | 71 | 23 | 12.0 | 20.0 | 0.00 | 0.00 | 0.00 | 67 | 1003.3 |
| 20260904092406 | 71 | 45 | 9.0 | 14.0 | 0.00 | 0.00 | 0.00 | 70 | 1003.5 |
| 20260904091706 | 70 | 45 | 8.0 | 14.0 | 0.00 | 0.00 | 0.00 | 71 | 1003.6 |
| 20260904091011 | 71 | 23 | 10.0 | 16.0 | 0.00 | 0.00 | 0.00 | 68 | 1003.7 |
| 20260904090311 | 71 | 23 | 9.0 | 17.0 | 0.00 | 0.00 | 0.00 | 70 | 1003.5 |
| 20260904085607 | 70 | 23 | 8.0 | 15.0 | 0.00 | 0.00 | 0.00 | 71 | 1003.6 |
| 20260904084915 | 70 | 23 | 10.0 | 18.0 | 0.00 | 0.00 | 0.00 | 72 | 1003.9 |
| 20260904084206 | 70 | 23 | 8.0 | 14.0 | 0.00 | 0.00 | 0.00 | 72 | 1003.7 |
| 20260904083507 | 69 | 23 | 9.0 | 16.0 | 0.00 | 0.00 | 0.00 | 74 | 1003.8 |
| 20260904082807 | 68 | 23 | 11.0 | 18.0 | 0.00 | 0.00 | 0.00 | 75 | 1003.9 |
| 20260904082107 | 69 | 23 | 8.0 | 14.0 | 0.00 | 0.00 | 0.00 | 75 | 1003.8 |
| 20260904081407 | 68 | 23 | 8.0 | 16.0 | 0.00 | 0.00 | 0.00 | 76 | 1003.8 |
| 20260904080708 | 68 | 23 | 9.0 | 16.0 | 0.00 | 0.00 | 0.00 | 77 | 1003.9 |
| 20260904074608 | 67 | 23 | 9.0 | 14.0 | 0.00 | 0.00 | 0.00 | 79 | 1004.1 |
| 20260904073913 | 67 | 23 | 9.0 | 16.0 | 0.00 | 0.00 | 0.00 | 79 | 1003.8 |
| 20260904073228 | 67 | 23 | 7.0 | 13.0 | 0.00 | 0.00 | 0.00 | 80 | 1003.7 |
| 20260904072554 | 67 | 23 | 7.0 | 14.0 | 0.00 | 0.00 | 0.00 | 80 | 1003.6 |
| 20260904071849 | 66 | 23 | 6.0 | 11.0 | 0.00 | 0.00 | 0.00 | 80 | 1003.8 |
| 20260904071154 | 66 | 23 | 8.0 | 17.0 | 0.00 | 0.00 | 0.00 | 80 | 1003.8 |
| 20260904065753 | 65 | 23 | 6.0 | 11.0 | 0.00 | 0.00 | 0.00 | 82 | 1003.9 |
| 20260904065030 | 65 | 23 | 6.0 | 17.0 | 0.00 | 0.00 | 0.00 | 83 | 1004.0 |
| 20260904064318 | 65 | 23 | 7.0 | 12.0 | 0.00 | 0.00 | 0.00 | 83 | 1004.1 |
| 20260904063610 | 64 | 23 | 6.0 | 12.0 | 0.00 | 0.00 | 0.00 | 84 | 1004.0 |
| 20260904062910 | 64 | 23 | 7.0 | 12.0 | 0.00 | 0.00 | 0.00 | 85 | 1004.1 |
| 20260904061526 | 63 | 23 | 7.0 | 12.0 | 0.00 | 0.00 | 0.00 | 86 | 1004.2 |
| 20260904060111 | 63 | 23 | 5.0 | 10.0 | 0.00 | 0.00 | 0.00 | 86 | 1004.0 |
| 20260904055411 | 63 | 23 | 7.0 | 10.0 | 0.00 | 0.00 | 0.00 | 87 | 1004.0 |
| 20260904054723 | 62 | 23 | 7.0 | 10.0 | 0.00 | 0.00 | 0.00 | 87 | 1004.2 |
| 20260904054011 | 62 | 23 | 8.0 | 18.0 | 0.00 | 0.00 | 0.00 | 88 | 1004.2 |
| 20260904053319 | 62 | 23 | 7.0 | 12.0 | 0.00 | 0.00 | 0.00 | 89 | 1004.3 |
| 20260904052623 | 62 | 0 | 7.0 | 10.0 | 0.00 | 0.00 | 0.00 | 89 | 1004.3 |
| 20260904051912 | 61 | 23 | 6.0 | 10.0 | 0.00 | 0.00 | 0.00 | 89 | 1004.2 |
| 20260904051216 | 61 | 23 | 7.0 | 11.0 | 0.00 | 0.00 | 0.00 | 88 | 1004.3 |
| 20260904045116 | 61 | 23 | 5.0 | 9.0 | 0.00 | 0.00 | 0.00 | 88 | 1004.2 |
| 20260904043713 | 61 | 23 | 6.0 | 13.0 | 0.00 | 0.00 | 0.00 | 88 | 1004.3 |
| 20260904043025 | 61 | 23 | 7.0 | 13.0 | 0.00 | 0.00 | 0.00 | 86 | 1004.3 |
| 20260904042313 | 62 | 23 | 6.0 | 11.0 | 0.00 | 0.00 | 0.00 | 85 | 1004.4 |
| 20260904040918 | 62 | 23 | 4.0 | 9.0 | 0.00 | 0.00 | 0.00 | 84 | 1004.5 |
| 20260904040214 | 62 | 23 | 4.0 | 9.0 | 0.00 | 0.00 | 0.00 | 84 | 1004.5 |
| 20260904035514 | 62 | 23 | 4.0 | 10.0 | 0.00 | 0.00 | 0.00 | 83 | 1004.5 |
| 20260904034114 | 62 | 359 | 0.0 | 0.0 | 0.00 | 0.00 | 0.00 | 83 | 1004.3 |
| 20260904032715 | 62 | 23 | 5.0 | 9.0 | 0.00 | 0.00 | 0.00 | 83 | 1004.4 |
| 20260904032015 | 62 | 23 | 6.0 | 11.0 | 0.00 | 0.00 | 0.00 | 83 | 1004.5 |
| 20260904031315 | 62 | 23 | 5.0 | 9.0 | 0.00 | 0.00 | 0.00 | 82 | 1004.5 |
| 20260904030615 | 62 | 23 | 6.0 | 13.0 | 0.00 | 0.00 | 0.00 | 82 | 1004.6 |
| 20260904025915 | 62 | 23 | 6.0 | 9.0 | 0.00 | 0.00 | 0.00 | 82 | 1004.5 |
| 20260904025216 | 62 | 23 | 4.0 | 10.0 | 0.00 | 0.00 | 0.00 | 82 | 1004.6 |
| 20260904024515 | 62 | 359 | 0.0 | 0.0 | 0.00 | 0.00 | 0.00 | 82 | 1004.6 |
| 20260904023816 | 212 | 359 | 0.0 | 0.0 | 0.00 | 0.00 | 0.00 | 100 | |
| 20260904023116 | 62 | 23 | 6.0 | 11.0 | 0.00 | 0.00 | 0.00 | 81 | 1004.8 |
| 20260904022416 | 62 | 23 | 4.0 | 9.0 | 0.00 | 0.00 | 0.00 | 82 | 1004.7 |
| 20260904021717 | 62 | 0 | 3.0 | 9.0 | 0.00 | 0.00 | 0.00 | 82 | 1004.7 |
| 20260904021016 | 62 | 0 | 3.0 | 7.0 | 0.00 | 0.00 | 0.00 | 82 | 1004.6 |
| 20260904020317 | 62 | 0 | 3.0 | 7.0 | 0.00 | 0.00 | 0.00 | 81 | 1004.6 |
| 20260904015625 | 62 | 0 | 3.0 | 6.0 | 0.00 | 0.00 | 0.00 | 81 | 1004.6 |
| 20260904014217 | 62 | 0 | 1.0 | 4.0 | 0.00 | 0.00 | 0.00 | 81 | 1004.7 |
| 20260904013517 | 62 | 0 | 3.0 | 8.0 | 0.00 | 0.00 | 0.00 | 80 | 1004.8 |
| 20260904012818 | 62 | 0 | 4.0 | 7.0 | 0.00 | 0.00 | 0.00 | 80 | 1004.7 |
| 20260904012137 | 62 | 0 | 3.0 | 8.0 | 0.00 | 0.00 | 0.00 | 81 | 1004.7 |
| 20260904010718 | 61 | 0 | 2.0 | 5.0 | 0.00 | 0.00 | 0.00 | 81 | 1004.9 |
| 20260904004618 | 62 | 0 | 4.0 | 8.0 | 0.00 | 0.00 | 0.00 | 81 | 1004.9 |
| 20260904003918 | 62 | 0 | 3.0 | 8.0 | 0.00 | 0.00 | 0.00 | 81 | 1004.9 |
| 20260904003219 | 62 | 0 | 3.0 | 7.0 | 0.00 | 0.00 | 0.00 | 81 | 1005.0 |
| 20260904002519 | 62 | 359 | 0.0 | 0.0 | 0.00 | 0.00 | 0.00 | 81 | 1004.9 |
| 20260904001139 | 62 | 0 | 5.0 | 8.0 | 0.00 | 0.00 | 0.00 | 81 | 1005.1 |
| 20260904000420 | 61 | 0 | 4.0 | 6.0 | 0.00 | 0.00 | 0.00 | 81 | 1005.1 |
| 20260903234320 | 61 | 0 | 3.0 | 7.0 | 0.00 | 0.00 | 0.00 | 83 | 1005.3 |
| 20260903232933 | 61 | 0 | 1.0 | 7.0 | 0.00 | 0.00 | 0.00 | 85 | 1005.3 |
| 20260903230129 | 60 | 0 | 0.0 | 0.0 | 0.00 | 0.00 | 0.00 | 86 | 1005.7 |
| 20260903224721 | 60 | 0 | 0.0 | 0.0 | 0.00 | 0.00 | 0.00 | 85 | 1005.9 |
| 20260903222634 | 61 | 0 | 0.0 | 2.0 | 0.00 | 0.00 | 0.00 | 83 | 1006.1 |
| 20260903222007 | 61 | 0 | 1.0 | 5.0 | 0.00 | 0.00 | 0.00 | 83 | 1006.2 |
| 20260903215831 | 61 | 0 | 0.0 | 4.0 | 0.00 | 0.00 | 0.00 | 85 | 1006.2 |
| 20260903215123 | 60 | 0 | 0.0 | 1.0 | 0.00 | 0.00 | 0.00 | 85 | 1006.3 |
| 20260903212409 | 62 | 0 | 0.0 | 1.0 | 0.00 | 0.00 | 0.00 | 81 | 1006.3 |
| 20260903211624 | 62 | 0 | 2.0 | 8.0 | 0.00 | 0.00 | 0.00 | 81 | 1006.5 |
| 20260903211009 | 62 | 0 | 1.0 | 6.0 | 0.00 | 0.00 | 0.00 | 83 | 1006.6 |
| 20260903204910 | 62 | 0 | 0.0 | 0.0 | 0.00 | 0.00 | 0.00 | 83 | 1006.8 |
| 20260903204210 | 62 | 0 | 0.0 | 0.0 | 0.00 | 0.00 | 0.00 | 83 | 1006.7 |
| 20260903202745 | 62 | 0 | 0.0 | 0.0 | 0.00 | 0.00 | 0.00 | 83 | 1006.7 |
| 20260903201325 | 62 | 0 | 0.0 | 0.0 | 0.00 | 0.00 | 0.00 | 83 | 1006.8 |
| 20260903200654 | 62 | 0 | 0.0 | 0.0 | 0.00 | 0.00 | 0.00 | 83 | 1006.8 |
| 20260903195937 | 62 | 0 | 0.0 | 0.0 | 0.00 | 0.00 | 0.00 | 83 | 1007.1 |